timestamp,wind_dir_avg,wind_spd_avg,wind_spd_max_dir,wind_spd_gust,battery_voltage,lat,long
2022-08-28 00:04:00+00:00,245.0,4.43,243.0,4.72,12.49,47.59359,-54.27349
2022-08-28 00:14:01+00:00,240.0,4.44,239.0,4.82,12.49,47.59359,-54.27349
2022-08-28 00:24:01+00:00,236.0,4.71,234.0,5.08,12.49,47.59359,-54.27349
2022-08-28 00:34:01+00:00,244.0,5.25,247.0,5.65,12.49,47.59359,-54.27349
2022-08-28 00:44:01+00:00,242.0,4.7,241.0,5.12,12.49,47.59359,-54.27349
2022-08-28 00:54:01+00:00,243.0,5.26,242.0,5.72,12.49,47.59359,-54.27349
2022-08-28 01:04:01+00:00,248.0,4.87,251.0,5.42,12.49,47.59359,-54.27349
2022-08-28 01:14:01+00:00,254.0,4.79,252.0,5.28,12.49,47.59359,-54.27349
2022-08-28 01:24:01+00:00,274.0,4.14,275.0,4.76,12.49,47.59359,-54.27349
2022-08-28 01:34:01+00:00,275.0,3.8,276.0,4.4,12.49,47.59359,-54.27349
2022-08-28 01:44:01+00:00,276.0,3.61,275.0,4.1,12.49,47.59359,-54.27349
2022-08-28 01:54:01+00:00,292.0,3.9,301.0,4.54,12.49,47.59359,-54.27349
2022-08-28 02:04:01+00:00,300.0,4.17,297.0,4.61,12.49,47.59359,-54.27349
2022-08-28 02:14:00+00:00,310.0,4.5,313.0,5.1,12.49,47.59359,-54.27349
2022-08-28 02:24:00+00:00,316.0,5.2,318.0,6.05,12.49,47.59359,-54.27349
2022-08-28 02:34:00+00:00,342.0,5.36,342.0,6.03,12.49,47.59359,-54.27349
2022-08-28 02:44:00+00:00,17.0,6.18,21.0,6.97,12.49,47.59359,-54.27349
2022-08-28 02:54:00+00:00,21.0,6.93,21.0,7.56,12.49,47.59359,-54.27349
2022-08-28 03:04:00+00:00,9.0,6.17,18.0,7.14,12.49,47.59359,-54.27349
2022-08-28 03:14:01+00:00,21.0,5.41,21.0,6.23,12.41,47.59359,-54.27349
2022-08-28 03:24:01+00:00,13.0,5.62,14.0,6.17,12.41,47.59359,-54.27349
2022-08-28 03:34:01+00:00,20.0,5.71,20.0,6.5,12.41,47.59359,-54.27349
2022-08-28 03:44:01+00:00,21.0,5.35,27.0,6.33,12.41,47.59359,-54.27349
2022-08-28 03:54:01+00:00,12.0,5.75,10.0,7.14,12.41,47.59359,-54.27349
2022-08-28 04:04:01+00:00,10.0,5.84,9.0,7.06,12.41,47.59359,-54.27349
2022-08-28 04:14:00+00:00,2.0,6.18,0.0,6.87,12.41,47.59359,-54.27349
2022-08-28 04:24:00+00:00,2.0,6.27,3.0,7.42,12.41,47.59359,-54.27349
2022-08-28 04:34:00+00:00,8.0,5.1,2.0,6.44,12.41,47.59359,-54.27349
2022-08-28 04:44:00+00:00,7.0,6.0,9.0,7.06,12.41,47.59359,-54.27349
2022-08-28 04:54:00+00:00,359.0,5.42,357.0,6.03,12.41,47.59359,-54.27349
2022-08-28 05:04:00+00:00,11.0,5.57,5.0,6.28,12.41,47.59359,-54.27349
2022-08-28 05:14:00+00:00,0.0,4.93,5.0,5.56,12.33,47.59359,-54.27349
2022-08-28 05:24:00+00:00,7.0,4.06,7.0,4.96,12.33,47.59359,-54.27349
2022-08-28 05:34:00+00:00,359.0,3.33,359.0,3.74,12.33,47.59359,-54.27349
2022-08-28 05:44:00+00:00,352.0,3.49,352.0,4.29,12.33,47.59359,-54.27349
2022-08-28 05:54:00+00:00,1.0,2.86,354.0,3.28,12.33,47.59359,-54.27349
2022-08-28 06:04:00+00:00,344.0,2.16,322.0,3.0,12.33,47.59359,-54.27349
2022-08-28 06:14:00+00:00,328.0,3.64,328.0,4.14,12.33,47.59359,-54.27349
2022-08-28 06:24:00+00:00,335.0,3.21,341.0,3.62,12.33,47.59359,-54.27349
2022-08-28 06:34:00+00:00,340.0,3.38,341.0,3.96,12.33,47.59359,-54.27349
2022-08-28 06:44:00+00:00,341.0,2.79,342.0,3.31,12.33,47.59359,-54.27349
2022-08-28 06:54:00+00:00,337.0,3.12,339.0,3.7,12.33,47.59359,-54.27349
2022-08-28 07:04:00+00:00,340.0,3.12,340.0,3.47,12.33,47.59359,-54.27349
2022-08-28 07:14:00+00:00,334.0,2.95,333.0,3.29,12.33,47.59359,-54.27349
2022-08-28 07:24:00+00:00,341.0,2.12,355.0,2.68,12.33,47.59359,-54.27349
2022-08-28 07:34:00+00:00,336.0,2.73,343.0,3.06,12.33,47.59359,-54.27349
2022-08-28 07:44:00+00:00,350.0,2.62,356.0,3.01,12.33,47.59359,-54.27349
2022-08-28 07:54:00+00:00,0.0,2.98,354.0,4.19,12.33,47.59359,-54.27349
2022-08-28 08:04:00+00:00,349.0,3.46,351.0,3.96,12.33,47.59359,-54.27349
2022-08-28 08:14:00+00:00,348.0,3.4,351.0,3.68,12.17,47.59359,-54.27349
2022-08-28 08:24:00+00:00,340.0,3.53,342.0,4.04,12.17,47.59359,-54.27349
2022-08-28 08:34:00+00:00,337.0,3.37,340.0,3.7,12.17,47.59359,-54.27349
2022-08-28 08:44:00+00:00,342.0,2.71,339.0,3.08,12.17,47.59359,-54.27349
2022-08-28 08:54:00+00:00,349.0,2.64,347.0,3.03,12.17,47.59359,-54.27349
2022-08-28 09:04:00+00:00,1.0,1.68,5.0,2.1,12.17,47.59359,-54.27349
2022-08-28 09:14:00+00:00,349.0,1.96,347.0,2.39,12.17,47.59359,-54.27349
2022-08-28 09:24:00+00:00,346.0,2.13,350.0,2.53,12.17,47.59359,-54.27349
2022-08-28 09:34:00+00:00,319.0,1.57,315.0,1.82,12.17,47.59359,-54.27349
2022-08-28 09:44:00+00:00,341.0,2.55,341.0,2.92,12.17,47.59359,-54.27349
2022-08-28 09:54:00+00:00,334.0,2.81,342.0,3.47,12.17,47.59359,-54.27349
2022-08-28 10:04:00+00:00,344.0,3.73,342.0,4.47,12.17,47.59359,-54.27349
2022-08-28 10:14:00+00:00,337.0,2.93,339.0,3.25,13.21,47.59359,-54.27349
2022-08-28 10:24:00+00:00,344.0,2.51,344.0,2.9,13.21,47.59359,-54.27349
2022-08-28 10:34:00+00:00,337.0,2.13,342.0,2.7,13.21,47.59359,-54.27349
2022-08-28 10:44:00+00:00,324.0,1.41,329.0,1.83,13.21,47.59359,-54.27349
2022-08-28 10:54:00+00:00,316.0,1.18,320.0,1.58,13.21,47.59359,-54.27349
2022-08-28 11:04:00+00:00,270.0,1.5,260.0,2.14,13.21,47.59359,-54.27349
2022-08-28 11:14:00+00:00,273.0,1.81,272.0,2.24,13.68,47.59359,-54.27349
2022-08-28 11:24:00+00:00,276.0,0.64,277.0,0.98,13.68,47.59359,-54.27349
2022-08-28 11:34:00+00:00,286.0,0.37,295.0,0.57,13.68,47.59359,-54.27349
2022-08-28 11:44:00+00:00,262.0,0.54,278.0,0.74,13.68,47.59359,-54.27349
2022-08-28 11:54:00+00:00,90.0,0.62,97.0,0.96,13.68,47.59359,-54.27349
2022-08-28 12:04:00+00:00,230.0,0.48,219.0,0.74,13.68,47.59359,-54.27349
2022-08-28 12:14:00+00:00,186.0,1.58,189.0,1.99,14.24,47.59359,-54.27349
2022-08-28 12:24:00+00:00,214.0,0.88,222.0,1.22,14.24,47.59359,-54.27349
2022-08-28 12:34:00+00:00,210.0,0.34,209.0,0.68,14.24,47.59359,-54.27349
2022-08-28 12:44:00+00:00,178.0,1.35,183.0,2.11,14.24,47.59359,-54.27349
2022-08-28 12:54:00+00:00,180.0,2.3,179.0,2.75,14.24,47.59359,-54.27349
2022-08-28 13:04:00+00:00,187.0,2.92,181.0,3.57,14.24,47.59359,-54.27349
2022-08-28 13:14:00+00:00,197.0,2.66,193.0,2.86,14.0,47.59359,-54.27349
2022-08-28 13:24:00+00:00,196.0,3.47,193.0,3.9,14.0,47.59359,-54.27349
2022-08-28 13:34:00+00:00,199.0,3.36,196.0,3.76,14.0,47.59359,-54.27349
2022-08-28 13:44:00+00:00,187.0,2.61,182.0,3.0,14.0,47.59359,-54.27349
2022-08-28 13:54:00+00:00,191.0,3.52,193.0,3.99,14.0,47.59359,-54.27349
2022-08-28 14:04:00+00:00,183.0,3.11,186.0,3.67,14.0,47.59359,-54.27349
2022-08-28 14:14:00+00:00,202.0,4.02,204.0,4.57,13.6,47.59359,-54.27349
2022-08-28 14:24:00+00:00,191.0,3.76,193.0,4.29,13.6,47.59359,-54.27349
2022-08-28 14:34:00+00:00,194.0,3.46,194.0,3.64,13.6,47.59359,-54.27349
2022-08-28 14:44:00+00:00,193.0,4.44,194.0,4.85,13.6,47.59359,-54.27349
2022-08-28 14:54:00+00:00,192.0,5.47,193.0,5.96,13.6,47.59359,-54.27349
2022-08-28 15:04:00+00:00,201.0,6.0,200.0,6.38,13.6,47.59359,-54.27349
2022-08-28 15:14:00+00:00,200.0,5.73,207.0,6.3,14.4,47.59359,-54.27349
2022-08-28 15:24:00+00:00,207.0,6.21,208.0,6.85,14.4,47.59359,-54.27349
2022-08-28 15:34:00+00:00,212.0,7.93,215.0,8.68,14.4,47.59359,-54.27349
2022-08-28 15:44:00+00:00,213.0,8.49,217.0,9.51,14.4,47.59359,-54.27349
2022-08-28 15:54:00+00:00,209.0,8.47,210.0,9.3,14.4,47.59359,-54.27349
2022-08-28 16:04:00+00:00,214.0,7.97,216.0,8.64,14.4,47.59359,-54.27349
2022-08-28 16:14:01+00:00,212.0,8.2,217.0,8.67,14.32,47.59359,-54.27349
2022-08-28 16:24:01+00:00,205.0,7.55,213.0,8.45,14.32,47.59359,-54.27349
2022-08-28 16:34:01+00:00,210.0,8.03,211.0,8.63,14.32,47.59359,-54.27349
2022-08-28 16:44:01+00:00,208.0,7.64,207.0,8.77,14.32,47.59359,-54.27349
2022-08-28 16:54:01+00:00,208.0,7.06,211.0,8.52,14.32,47.59359,-54.27349
2022-08-28 17:04:01+00:00,216.0,9.01,218.0,9.54,14.32,47.59359,-54.27349
2022-08-28 17:14:00+00:00,215.0,8.34,218.0,9.63,13.92,47.59359,-54.27349
2022-08-28 17:24:00+00:00,218.0,8.22,219.0,9.38,13.92,47.59359,-54.27349
2022-08-28 17:34:00+00:00,216.0,9.97,216.0,10.71,13.92,47.59359,-54.27349
2022-08-28 17:44:00+00:00,219.0,9.67,223.0,11.2,13.92,47.59359,-54.27349
2022-08-28 17:54:00+00:00,214.0,10.15,216.0,11.75,13.92,47.59359,-54.27349
2022-08-28 18:04:00+00:00,217.0,10.28,217.0,11.09,13.92,47.59359,-54.27349
2022-08-28 18:14:01+00:00,217.0,10.05,212.0,11.74,14.0,47.59359,-54.27349
2022-08-28 18:24:01+00:00,216.0,10.57,215.0,11.6,14.0,47.59359,-54.27349
2022-08-28 18:34:01+00:00,216.0,10.91,217.0,12.38,14.0,47.59359,-54.27349
2022-08-28 18:44:01+00:00,212.0,10.06,210.0,11.41,14.0,47.59359,-54.27349
2022-08-28 18:54:01+00:00,210.0,9.83,213.0,10.85,14.0,47.59359,-54.27349
2022-08-28 19:04:01+00:00,213.0,10.38,212.0,11.68,14.0,47.59359,-54.27349
2022-08-28 19:14:00+00:00,212.0,10.23,211.0,11.69,13.76,47.59359,-54.27349
2022-08-28 19:24:00+00:00,212.0,10.05,210.0,11.13,13.76,47.59359,-54.27349
2022-08-28 19:34:00+00:00,214.0,9.71,213.0,10.88,13.76,47.59359,-54.27349
2022-08-28 19:44:00+00:00,212.0,11.06,213.0,12.1,13.76,47.59359,-54.27349
2022-08-28 19:54:00+00:00,210.0,9.93,207.0,10.94,13.76,47.59359,-54.27349
2022-08-28 20:04:00+00:00,207.0,9.91,208.0,10.91,13.76,47.59359,-54.27349
2022-08-28 20:14:00+00:00,212.0,7.98,215.0,8.99,13.44,47.59359,-54.27349
2022-08-28 20:24:00+00:00,213.0,8.21,213.0,9.0,13.44,47.59359,-54.27349
2022-08-28 20:34:00+00:00,216.0,7.95,216.0,9.19,13.44,47.59359,-54.27349
2022-08-28 20:44:00+00:00,211.0,8.06,212.0,8.97,13.44,47.59359,-54.27349
2022-08-28 20:54:00+00:00,208.0,8.37,212.0,9.87,13.44,47.59359,-54.27349
2022-08-28 21:04:00+00:00,217.0,6.98,218.0,8.05,13.44,47.59359,-54.27349
2022-08-28 21:14:01+00:00,216.0,6.9,228.0,8.67,13.37,47.59359,-54.27349
2022-08-28 21:24:01+00:00,217.0,6.49,220.0,7.36,13.37,47.59359,-54.27349
2022-08-28 21:34:01+00:00,229.0,7.63,232.0,8.95,13.37,47.59359,-54.27349
2022-08-28 21:44:01+00:00,272.0,4.11,270.0,4.75,13.37,47.59359,-54.27349
2022-08-28 21:54:01+00:00,252.0,6.07,250.0,7.12,13.37,47.59359,-54.27349
2022-08-28 22:04:01+00:00,253.0,6.24,250.0,6.81,13.37,47.59359,-54.27349
2022-08-28 22:14:01+00:00,257.0,5.95,256.0,6.37,12.97,47.59359,-54.27349
2022-08-28 22:24:01+00:00,245.0,4.86,244.0,5.81,12.97,47.59359,-54.27349
2022-08-28 22:34:01+00:00,247.0,5.68,248.0,6.23,12.97,47.59359,-54.27349
2022-08-28 22:44:01+00:00,237.0,6.52,236.0,6.98,12.97,47.59359,-54.27349
2022-08-28 22:54:01+00:00,240.0,6.08,244.0,6.8,12.97,47.59359,-54.27349
2022-08-28 23:04:01+00:00,248.0,6.93,249.0,8.81,12.97,47.59359,-54.27349
2022-08-28 23:14:00+00:00,255.0,6.36,254.0,7.06,12.49,47.59359,-54.27349
2022-08-28 23:24:00+00:00,250.0,8.07,252.0,8.86,12.49,47.59359,-54.27349
2022-08-28 23:34:00+00:00,245.0,7.03,252.0,7.83,12.49,47.59359,-54.27349
2022-08-28 23:44:00+00:00,253.0,8.26,254.0,8.75,12.49,47.59359,-54.27349
2022-08-28 23:54:00+00:00,245.0,8.55,244.0,9.27,12.49,47.59359,-54.27349
